Regional Weather Roundup
Issued by NWS

Home | Current Version | Previous Version | Graphics & Text | Print | Product List | Glossary On
Versions: 1 2 3 4 5 6 7 8 9 10 11 12 13 14 15 16 17 18 19 20 21 22 23 24 25 26 27 28 29 30 31 32 33 34 35 36 37 38 39 40 41 42 43 44 45 46 47 48 49 50
000
ASUS43 KIND 070209
RWRIN

WEATHER ROUNDUP FOR INDIANA
NATIONAL WEATHER SERVICE INDIANAPOLIS IN
900 PM EST SAT FEB 06 2016

NOTE: "FAIR" INDICATES FEW OR NO CLOUDS BELOW 12,000 FEET WITH NO
SIGNIFICANT WEATHER AND/OR OBSTRUCTIONS TO VISIBILITY.

* - STATION DOES NOT REPORT WEATHER SUCH AS PRECIPITATION OR FOG.

+ - STATION NOT QUALITY CONTROLLED BY THE NATIONAL WEATHER SERVICE.
    USE DATA WITH CAUTION...ESPECIALLY DEWPOINT AND RELATIVE
    HUMIDITY OBSERVATIONS.

INZ001>003-010>013-019-020-070300-
NORTHWEST INDIANA

CITY           SKY/WX    TMP DP  RH WIND       PRES   REMARKS
GARY /AIRPORT/ CLEAR     36  28  75 SE8       30.15F
LA PORTE +     PTCLDY    34  31  87 S5        30.16F WCI  30
MICHIGAN CITY+ CLEAR     34  28  80 S5        30.15F WCI  30
MONTICELLO +   CLEAR     31  26  80 CALM      30.18S
RENSSELAER +   CLEAR     34  28  80 S5        30.17F WCI  30
VALPARAISO     CLEAR     34  27  75 S5        30.15F WCI  30

$$

LMZ046-743>745-070300-
SOUTHERN LAKE MICHIGAN

STATION/POSITION TIME  TEMP    WIND        PRES    WAVE
                       AIR SEA DIR/SP/G            HT
                 (UTC) (F)     (DEG/KT/KT) (MB)    (FT)
BURNS HARBOR     0100   37     190/  7/  9 1022.0S
MICHIGAN CITY    0100   38     160/  9/ 11   N/A

$$

INZ004-005-014>016-021>024-070300-
NORTH CENTRAL INDIANA

CITY           SKY/WX    TMP DP  RH WIND       PRES   REMARKS
GOSHEN         CLEAR     33  27  78 S7        30.16F WCI  27
LOGANSPORT +   CLEAR     32  25  74 S3        30.19S
PERU/GRISSOM   CLEAR     31  26  82 S2        30.17F
ROCHESTER +    CLEAR     36  27  69 S3        30.18F
SOUTH BEND     CLEAR     29  24  82 S5        30.16F WCI  24
WARSAW +       CLEAR     30  27  86 CALM      30.17F

$$

INZ006>009-017-018-025>027-070300-
NORTHEAST INDIANA

CITY           SKY/WX    TMP DP  RH WIND       PRES   REMARKS
AUBURN +       CLEAR     32  27  80 CALM      30.19S
FORT WAYNE     PTCLDY    30  25  81 S6        30.19F WCI  24
HUNTINGTON +   CLEAR     29  23  79 S3        30.19S

$$

INZ028-029-035-036-043>045-051>053-070300-
WEST CENTRAL INDIANA

CITY           SKY/WX    TMP DP  RH WIND       PRES   REMARKS
GREENCASTLE +  CLEAR     34  21  60 S6        30.21S WCI  29
LAFAYETTE      CLEAR     30  25  81 CALM      30.18S
TERRE HAUTE    CLEAR     34  26  72 S5        30.21S WCI  30

$$

INZ030>032-037>040-046>048-054>057-064-065-070300-
CENTRAL INDIANA

CITY           SKY/WX    TMP DP  RH WIND       PRES   REMARKS
FISHERS *+     CLEAR     34  27  75 S5        30.20F WCI  30
FRANKFORT +    PTCLDY    34  23  63 S6        30.20F WCI  29
GREENWOOD *+   CLEAR     36  27  69 S5        30.22S
INDIANAPOLIS   CLEAR     35  23  61 S8        30.19F WCI  29
-EAGLE CREEK   CLEAR     36  24  62 S3        30.20S
KOKOMO *+        N/A     32  27  80 S6        30.18F WCI  26
MARION +       CLEAR     31  22  68 S5        30.19F WCI  27
MT COMFORT *+  CLEAR     34  25  69 S6        30.21S WCI  29
SHELBYVILLE    CLEAR     34  25  69 S7        30.21S WCI  28
ZIONSVILLE +   PTCLDY    32  25  75 S7        30.20F WCI  26

$$

INZ033-034-041-042-049-050-058-059-070300-
EAST CENTRAL INDIANA

CITY           SKY/WX    TMP DP  RH WIND       PRES   REMARKS
MUNCIE         CLEAR     36  25  64 S6        30.19F

$$

INZ060-061-067>069-081>083-085>088-070300-
SOUTHWEST INDIANA

CITY           SKY/WX    TMP DP  RH WIND       PRES   REMARKS
EVANSVILLE     CLEAR     41  25  53 CALM      30.26S
HUNTINGBURG *+ CLEAR     39  25  56 S5        30.25F
WASHINGTON +   CLEAR     38  28  67 S8        30.23S

$$

INZ062-063-066-070>080-084-089>092-070300-
SOUTH CENTRAL AND SOUTHEAST INDIANA

CITY           SKY/WX    TMP DP  RH WIND       PRES   REMARKS
BEDFORD +      CLEAR     39  27  60 S5        30.23F
BLOOMINGTON    CLEAR     35  25  66 S5        30.21F WCI  31
MADISON *+     CLEAR     34  27  75 CALM      30.26S
NORTH VERNON + CLEAR     32  25  74 CALM      30.24S
SEYMOUR +      PTCLDY    34  27  75 S3        30.24F

$$





USA.gov is the U.S. government's official web portal to all federal, state and local government web resources and services.